User: anonymous   Login
Location: Charbonni�res
(45.9952°N, 2.9982°E)
Time: 22:39:30
(UTC+00:00)
Language:

CZ-4B R/B - Orbit

View from above orbital plane
View from above orbital plane
View from above satellite
View from above satellite

Ground track
Ground track

The orbit data is extracted from the following two-line orbital elements,

1 33410U 08053C   21058.42382277  .00000081  00000-0  10960-4 0  9997
2 33410  97.8827  53.4302 0119474 344.3338  15.4199 14.99398686672978
Epoch (UTC): 27 February 2021 10:10:18
Eccentricity: 0.0119474
inclination: 97.8827°
perigee height: 486 km
apogee height: 652 km
right ascension of ascending node: 53.4302°
argument of perigee: 344.3338°
revolutions per day: 14.99398686
mean anomaly at epoch: 15.4199°
orbit number at epoch: 67297

The dashed part of the orbit path shows where the satellite is in the earth's shadow,  

DLR